| time (UTC) | temp C | wind direction | speed KPH | gust KPH | rain 1hr cm | rain 24hr cm | rain mn cm | humidity % | barometer mb |
| 20260506004504 | 22 | 97 | 1.6 | 11.3 | 0.00 | 0.00 | 0.00 | 61 | 1014.5 |
| 20260506004003 | 22 | 95 | 3.2 | 11.3 | 0.00 | 0.00 | 0.00 | 60 | 1014.5 |
| 20260506003504 | 23 | 98 | 1.6 | 4.8 | 0.00 | 0.00 | 0.00 | 60 | 1014.4 |
| 20260506003004 | 23 | 91 | 3.2 | 8.0 | 0.00 | 0.00 | 0.00 | 60 | 1014.3 |
| 20260506002504 | 23 | 71 | 4.8 | 11.3 | 0.00 | 0.00 | 0.00 | 59 | 1014.3 |
| 20260506002003 | 23 | 117 | 4.8 | 11.3 | 0.00 | 0.00 | 0.00 | 59 | 1014.3 |
| 20260506001503 | 23 | 77 | 3.2 | 9.7 | 0.00 | 0.00 | 0.00 | 58 | 1014.2 |
| 20260506001004 | 23 | 92 | 3.2 | 11.3 | 0.00 | 0.00 | 0.00 | 58 | 1014.1 |
| 20260506000504 | 23 | 74 | 1.6 | 11.3 | 0.00 | 0.00 | 0.00 | 57 | 1014.0 |
| 20260506000004 | 23 | 101 | 1.6 | 12.9 | 0.00 | 0.00 | 0.00 | 56 | 1014.0 |
| 20260505235504 | 23 | 89 | 1.6 | 14.5 | 0.00 | 0.00 | 0.00 | 56 | 1013.9 |
| 20260505235004 | 24 | 94 | 8.0 | 14.5 | 0.00 | 0.00 | 0.00 | 55 | 1013.8 |
| 20260505234504 | 24 | 105 | 3.2 | 11.3 | 0.00 | 0.00 | 0.00 | 54 | 1013.9 |
| 20260505233504 | 24 | 80 | 3.2 | 12.9 | 0.00 | 0.00 | 0.00 | 52 | 1013.8 |
| 20260505233004 | 25 | 96 | 6.4 | 19.3 | 0.00 | 0.00 | 0.00 | 52 | 1013.8 |
| 20260505232504 | 25 | 91 | 6.4 | 19.3 | 0.00 | 0.00 | 0.00 | 51 | 1013.8 |
| 20260505232005 | 25 | 99 | 6.4 | 14.5 | 0.00 | 0.00 | 0.00 | 51 | 1013.8 |
| 20260505231504 | 25 | 102 | 6.4 | 14.5 | 0.00 | 0.00 | 0.00 | 50 | 1013.8 |
| 20260505231004 | 25 | 127 | 3.2 | 16.1 | 0.00 | 0.00 | 0.00 | 51 | 1013.8 |
| 20260505230503 | 25 | 91 | 6.4 | 19.3 | 0.00 | 0.00 | 0.00 | 50 | 1013.8 |
| 20260505230004 | 25 | 74 | 6.4 | 19.3 | 0.00 | 0.00 | 0.00 | 50 | 1013.7 |
| 20260505225504 | 25 | 119 | 8.0 | 14.5 | 0.00 | 0.00 | 0.00 | 49 | 1013.7 |
| 20260505225004 | 26 | 102 | 4.8 | 14.5 | 0.00 | 0.00 | 0.00 | 50 | 1013.8 |
| 20260505224504 | 26 | 74 | 4.8 | 19.3 | 0.00 | 0.00 | 0.00 | 49 | 1013.7 |
| 20260505224005 | 26 | 89 | 8.0 | 19.3 | 0.00 | 0.00 | 0.00 | 48 | 1013.7 |
| 20260505223504 | 26 | 93 | 4.8 | 16.1 | 0.00 | 0.00 | 0.00 | 49 | 1013.6 |
| 20260505223005 | 26 | 120 | 4.8 | 16.1 | 0.00 | 0.00 | 0.00 | 48 | 1013.6 |
| 20260505222504 | 26 | 128 | 8.0 | 24.1 | 0.00 | 0.00 | 0.00 | 49 | 1013.5 |
| 20260505222004 | 26 | 93 | 9.7 | 24.1 | 0.00 | 0.00 | 0.00 | 48 | 1013.6 |
| 20260505220503 | 26 | 90 | 11.3 | 22.5 | 0.00 | 0.00 | 0.00 | 47 | 1013.6 |
| 20260505220004 | 27 | 101 | 1.6 | 16.1 | 0.00 | 0.00 | 0.00 | 49 | 1013.6 |
| 20260505215004 | 27 | 94 | 8.0 | 19.3 | 0.00 | 0.00 | 0.00 | 47 | 1013.6 |
| 20260505214504 | 27 | 137 | 8.0 | 19.3 | 0.00 | 0.00 | 0.00 | 47 | 1013.5 |
| 20260505213504 | 27 | 124 | 4.8 | 19.3 | 0.00 | 0.00 | 0.00 | 48 | 1013.5 |
| 20260505213004 | 27 | 87 | 6.4 | 19.3 | 0.00 | 0.00 | 0.00 | 46 | 1013.6 |
| 20260505212505 | 27 | 98 | 9.7 | 19.3 | 0.00 | 0.00 | 0.00 | 46 | 1013.6 |
| 20260505211505 | 27 | 111 | 6.4 | 19.3 | 0.00 | 0.00 | 0.00 | 48 | 1013.7 |
| 20260505210505 | 27 | 92 | 4.8 | 19.3 | 0.00 | 0.00 | 0.00 | 47 | 1013.7 |
| 20260505210004 | 27 | 82 | 9.7 | 22.5 | 0.00 | 0.00 | 0.00 | 46 | 1013.7 |
| 20260505205504 | 27 | 79 | 9.7 | 22.5 | 0.00 | 0.00 | 0.00 | 45 | 1013.7 |
| 20260505204504 | 28 | 122 | 3.2 | 19.3 | 0.00 | 0.00 | 0.00 | 47 | 1013.7 |
| 20260505204003 | 28 | 103 | 11.3 | 19.3 | 0.00 | 0.00 | 0.00 | 46 | 1013.7 |
| 20260505203504 | 28 | 98 | 8.0 | 16.1 | 0.00 | 0.00 | 0.00 | 45 | 1013.7 |
| 20260505203004 | 28 | 110 | 6.4 | 19.3 | 0.00 | 0.00 | 0.00 | 46 | 1013.8 |
| 20260505202504 | 28 | 116 | 6.4 | 20.9 | 0.00 | 0.00 | 0.00 | 46 | 1013.9 |
| 20260505202006 | 28 | 121 | 9.7 | 20.9 | 0.00 | 0.00 | 0.00 | 46 | 1014.1 |
| 20260505195003 | 28 | 91 | 11.3 | 22.5 | 0.00 | 0.00 | 0.00 | 45 | 1014.1 |
| 20260505193504 | 29 | 121 | 8.0 | 19.3 | 0.00 | 0.00 | 0.00 | 45 | 1014.2 |
| 20260505193003 | 29 | 72 | 4.8 | 16.1 | 0.00 | 0.00 | 0.00 | 45 | 1014.2 |
| 20260505192504 | 29 | 83 | 8.0 | 16.1 | 0.00 | 0.00 | 0.00 | 44 | 1014.3 |
| 20260505192004 | 29 | 79 | 4.8 | 11.3 | 0.00 | 0.00 | 0.00 | 45 | 1014.3 |
| 20260505191505 | 28 | 326 | 3.2 | 12.9 | 0.00 | 0.00 | 0.00 | 44 | 1014.3 |
| 20260505190004 | 29 | 54 | 3.2 | 12.9 | 0.00 | 0.00 | 0.00 | 43 | 1014.6 |
| 20260505185504 | 29 | 66 | 6.4 | 11.3 | 0.00 | 0.00 | 0.00 | 40 | 1014.6 |
| 20260505185004 | 29 | 82 | 1.6 | 11.3 | 0.00 | 0.00 | 0.00 | 42 | 1014.7 |
| 20260505184504 | 28 | 342 | 1.6 | 14.5 | 0.00 | 0.00 | 0.00 | 42 | 1014.8 |
| 20260505184004 | 28 | 109 | 8.0 | 14.5 | 0.00 | 0.00 | 0.00 | 42 | 1014.8 |
| 20260505183004 | 29 | 103 | 4.8 | 11.3 | 0.00 | 0.00 | 0.00 | 42 | 1014.9 |
| 20260505182504 | 29 | 118 | 4.8 | 14.5 | 0.00 | 0.00 | 0.00 | 42 | 1015.0 |
| 20260505182004 | 29 | 2 | 3.2 | 14.5 | 0.00 | 0.00 | 0.00 | 44 | 1015.0 |
| 20260505181504 | 29 | 135 | 4.8 | 11.3 | 0.00 | 0.00 | 0.00 | 42 | 1015.0 |
| 20260505181005 | 28 | 82 | 1.6 | 16.1 | 0.00 | 0.00 | 0.00 | 44 | 1015.0 |
| 20260505180504 | 28 | 127 | 4.8 | 16.1 | 0.00 | 0.00 | 0.00 | 42 | 1015.1 |
| 20260505180004 | 29 | 331 | 3.2 | 12.9 | 0.00 | 0.00 | 0.00 | 41 | 1015.1 |
| 20260505175004 | 29 | 44 | 4.8 | 14.5 | 0.00 | 0.00 | 0.00 | 41 | 1015.2 |
| 20260505174505 | 29 | 41 | 3.2 | 14.5 | 0.00 | 0.00 | 0.00 | 42 | 1015.3 |
| 20260505174004 | 29 | 113 | 3.2 | 12.9 | 0.00 | 0.00 | 0.00 | 42 | 1015.5 |
| 20260505173504 | 29 | 136 | 3.2 | 11.3 | 0.00 | 0.00 | 0.00 | 42 | 1015.5 |
| 20260505173004 | 28 | 155 | 0.0 | 11.3 | 0.00 | 0.00 | 0.00 | 43 | 1015.5 |
| 20260505172504 | 28 | 98 | 4.8 | 11.3 | 0.00 | 0.00 | 0.00 | 43 | 1015.6 |
| 20260505172003 | 28 | 10 | 3.2 | 11.3 | 0.00 | 0.00 | 0.00 | 43 | 1015.5 |
| 20260505171503 | 28 | 119 | 4.8 | 12.9 | 0.00 | 0.00 | 0.00 | 45 | 1015.6 |
| 20260505171003 | 28 | 156 | 3.2 | 12.9 | 0.00 | 0.00 | 0.00 | 46 | 1015.7 |
| 20260505170505 | 28 | 82 | 4.8 | 12.9 | 0.00 | 0.00 | 0.00 | 45 | 1015.8 |
| 20260505170004 | 28 | 81 | 3.2 | 11.3 | 0.00 | 0.00 | 0.00 | 46 | 1015.7 |
| 20260505165504 | 28 | 310 | 3.2 | 11.3 | 0.00 | 0.00 | 0.00 | 46 | 1015.8 |
| 20260505164504 | 27 | 68 | 1.6 | 11.3 | 0.00 | 0.00 | 0.00 | 48 | 1016.0 |
| 20260505164004 | 27 | 105 | 4.8 | 11.3 | 0.00 | 0.00 | 0.00 | 46 | 1015.9 |
| 20260505163503 | 27 | 101 | 4.8 | 9.7 | 0.00 | 0.00 | 0.00 | 48 | 1016.0 |
| 20260505163004 | 27 | 64 | 1.6 | 4.8 | 0.00 | 0.00 | 0.00 | 48 | 1016.0 |
| 20260505162504 | 27 | 331 | 3.2 | 9.7 | 0.00 | 0.00 | 0.00 | 50 | 1016.0 |
| 20260505162003 | 27 | 58 | 3.2 | 11.3 | 0.00 | 0.00 | 0.00 | 50 | 1016.2 |
| 20260505161004 | 27 | 156 | 6.4 | 14.5 | 0.00 | 0.00 | 0.00 | 51 | 1016.1 |
| 20260505160504 | 26 | 176 | 4.8 | 11.3 | 0.00 | 0.00 | 0.00 | 51 | 1016.1 |
| 20260505153004 | 26 | 196 | 3.2 | 12.9 | 0.00 | 0.00 | 0.00 | 50 | 1016.2 |
| 20260505152504 | 26 | 136 | 4.8 | 11.3 | 0.00 | 0.00 | 0.00 | 51 | 1016.1 |
| 20260505152004 | 26 | 113 | 4.8 | 11.3 | 0.00 | 0.00 | 0.00 | 52 | 1016.2 |
| 20260505151503 | 26 | 110 | 4.8 | 14.5 | 0.00 | 0.00 | 0.00 | 53 | 1016.2 |
| 20260505151005 | 26 | 130 | 3.2 | 14.5 | 0.00 | 0.00 | 0.00 | 55 | 1016.1 |
| 20260505150504 | 26 | 98 | 9.7 | 14.5 | 0.00 | 0.00 | 0.00 | 52 | 1016.1 |
| 20260505140504 | 24 | 114 | 4.8 | 14.5 | 0.00 | 0.00 | 0.00 | 62 | 1016.0 |
| 20260505125004 | 21 | 95 | 1.6 | 4.8 | 0.00 | 0.00 | 0.00 | 79 | 1015.6 |
| 20260505124503 | 20 | 71 | 1.6 | 4.8 | 0.00 | 0.00 | 0.00 | 80 | 1015.6 |
| 20260505124004 | 20 | 87 | 3.2 | 4.8 | 0.00 | 0.00 | 0.00 | 82 | 1015.6 |
| 20260505123503 | 19 | 86 | 3.2 | 4.8 | 0.00 | 0.00 | 0.00 | 85 | 1015.6 |
| 20260505123004 | 18 | 80 | 0.0 | 3.2 | 0.00 | 0.00 | 0.00 | 89 | 1015.7 |
| 20260505122504 | 18 | 80 | 0.0 | 3.2 | 0.00 | 0.00 | 0.00 | 90 | 1015.6 |
| 20260505122004 | 17 | 113 | 1.6 | 3.2 | 0.00 | 0.00 | 0.00 | 90 | 1015.7 |
| 20260505121505 | 17 | 174 | 1.6 | 3.2 | 0.00 | 0.00 | 0.00 | 91 | 1015.7 |
| 20260505121004 | 17 | 238 | 0.0 | 1.6 | 0.00 | 0.00 | 0.00 | 93 | 1015.7 |
| 20260505120504 | 16 | 238 | 0.0 | 0.0 | 0.00 | 0.00 | 0.00 | 93 | 1015.6 |
| 20260505115504 | 15 | 238 | 0.0 | 0.0 | 0.00 | 0.00 | 0.00 | 93 | 1015.5 |
| 20260505115003 | 15 | 238 | 0.0 | 0.0 | 0.00 | 0.00 | 0.00 | 93 | 1015.3 |
| 20260505114003 | 14 | 238 | 0.0 | 0.0 | 0.00 | 0.00 | 0.00 | 93 | 1015.4 |
| 20260505113504 | 13 | 238 | 0.0 | 0.0 | 0.00 | 0.00 | 0.00 | 93 | 1015.4 |
| 20260505113005 | 13 | 238 | 0.0 | 0.0 | 0.00 | 0.00 | 0.00 | 93 | 1015.5 |
| 20260505112504 | 13 | 238 | 0.0 | 1.6 | 0.00 | 0.00 | 0.00 | 93 | 1015.4 |
| 20260505112004 | 13 | 238 | 0.0 | 1.6 | 0.00 | 0.00 | 0.00 | 93 | 1015.4 |
| 20260505111504 | 13 | 238 | 0.0 | 0.0 | 0.00 | 0.00 | 0.00 | 92 | 1015.4 |
| 20260505111005 | 13 | 238 | 0.0 | 0.0 | 0.00 | 0.00 | 0.00 | 92 | 1015.2 |
| 20260505102004 | 13 | 240 | 0.0 | 1.6 | 0.00 | 0.00 | 0.00 | 92 | 1014.8 |
| 20260505101504 | 13 | 240 | 0.0 | 0.0 | 0.00 | 0.00 | 0.00 | 92 | 1014.7 |
| 20260505101006 | 13 | 240 | 0.0 | 0.0 | 0.00 | 0.00 | 0.00 | 92 | 1014.6 |
| 20260505100506 | 13 | 240 | 0.0 | 0.0 | 0.00 | 0.00 | 0.00 | 92 | 1014.6 |
| 20260505100004 | 13 | 240 | 0.0 | 0.0 | 0.00 | 0.00 | 0.00 | 92 | 1014.6 |
| 20260505095004 | 14 | 240 | 0.0 | 0.0 | 0.00 | 0.00 | 0.00 | 92 | 1014.6 |
| 20260505094503 | 14 | 240 | 0.0 | 0.0 | 0.00 | 0.00 | 0.00 | 92 | 1014.6 |
| 20260505094005 | 14 | 240 | 0.0 | 1.6 | 0.00 | 0.00 | 0.00 | 92 | 1014.5 |
| 20260505093503 | 14 | 240 | 0.0 | 3.2 | 0.00 | 0.00 | 0.00 | 92 | 1014.6 |
| 20260505092004 | 14 | 90 | 0.0 | 0.0 | 0.00 | 0.00 | 0.00 | 92 | 1014.2 |
| 20260505091503 | 14 | 90 | 0.0 | 0.0 | 0.00 | 0.00 | 0.00 | 92 | 1014.2 |
| 20260505091004 | 14 | 90 | 0.0 | 0.0 | 0.00 | 0.00 | 0.00 | 92 | 1014.2 |
| 20260505090504 | 14 | 90 | 0.0 | 0.0 | 0.00 | 0.00 | 0.00 | 92 | 1014.1 |
| 20260505090004 | 14 | 90 | 0.0 | 0.0 | 0.00 | 0.00 | 0.00 | 92 | 1014.1 |
| 20260505085503 | 14 | 90 | 0.0 | 0.0 | 0.00 | 0.00 | 0.00 | 92 | 1014.1 |
| 20260505085004 | 14 | 90 | 0.0 | 0.0 | 0.00 | 0.00 | 0.00 | 92 | 1014.1 |
| 20260505084504 | 14 | 90 | 0.0 | 0.0 | 0.00 | 0.00 | 0.00 | 92 | 1014.1 |
| 20260505084004 | 14 | 90 | 0.0 | 0.0 | 0.00 | 0.00 | 0.00 | 91 | 1014.1 |
| 20260505083503 | 14 | 90 | 0.0 | 0.0 | 0.00 | 0.00 | 0.00 | 91 | 1014.1 |
| 20260505083004 | 14 | 90 | 0.0 | 0.0 | 0.00 | 0.00 | 0.00 | 91 | 1014.0 |
| 20260505082504 | 14 | 90 | 0.0 | 0.0 | 0.00 | 0.00 | 0.00 | 91 | 1014.0 |
| 20260505082004 | 14 | 90 | 0.0 | 0.0 | 0.00 | 0.00 | 0.00 | 91 | 1014.0 |
| 20260505081504 | 14 | 90 | 0.0 | 0.0 | 0.00 | 0.00 | 0.00 | 91 | 1014.0 |
| 20260505081004 | 15 | 90 | 0.0 | 0.0 | 0.00 | 0.00 | 0.00 | 91 | 1013.9 |
| 20260505080505 | 15 | 90 | 0.0 | 0.0 | 0.00 | 0.00 | 0.00 | 91 | 1013.8 |
| 20260505075003 | 15 | 90 | 0.0 | 0.0 | 0.00 | 0.00 | 0.00 | 91 | 1014.1 |
| 20260505074503 | 15 | 90 | 0.0 | 0.0 | 0.00 | 0.00 | 0.00 | 91 | 1014.1 |
| 20260505074005 | 15 | 90 | 0.0 | 1.6 | 0.00 | 0.00 | 0.00 | 91 | 1014.1 |
| 20260505073503 | 15 | 90 | 0.0 | 1.6 | 0.00 | 0.00 | 0.00 | 90 | 1014.2 |
| 20260505073004 | 15 | 90 | 0.0 | 1.6 | 0.00 | 0.00 | 0.00 | 90 | 1014.2 |
| 20260505072004 | 15 | 90 | 0.0 | 0.0 | 0.00 | 0.00 | 0.00 | 90 | 1014.3 |
| 20260505071503 | 15 | 90 | 0.0 | 0.0 | 0.00 | 0.00 | 0.00 | 90 | 1014.3 |
| 20260505071004 | 15 | 90 | 0.0 | 0.0 | 0.00 | 0.00 | 0.00 | 90 | 1014.3 |
| 20260505070503 | 15 | 90 | 0.0 | 0.0 | 0.00 | 0.00 | 0.00 | 90 | 1014.5 |
| 20260505065503 | 15 | 90 | 0.0 | 0.0 | 0.00 | 0.00 | 0.00 | 89 | 1014.5 |
| 20260505065004 | 15 | 90 | 0.0 | 0.0 | 0.00 | 0.00 | 0.00 | 89 | 1014.5 |
| 20260505064503 | 15 | 90 | 0.0 | 0.0 | 0.00 | 0.00 | 0.00 | 89 | 1014.5 |
| 20260505064004 | 15 | 90 | 0.0 | 0.0 | 0.00 | 0.00 | 0.00 | 89 | 1014.5 |
| 20260505063504 | 15 | 90 | 0.0 | 0.0 | 0.00 | 0.00 | 0.00 | 89 | 1014.6 |
| 20260505063003 | 15 | 90 | 0.0 | 0.0 | 0.00 | 0.00 | 0.00 | 89 | 1014.6 |
| 20260505062504 | 15 | 90 | 0.0 | 0.0 | 0.00 | 0.00 | 0.00 | 89 | 1014.6 |
| 20260505061504 | 15 | 90 | 0.0 | 0.0 | 0.00 | 0.00 | 0.00 | 88 | 1014.8 |
| 20260505061004 | 15 | 90 | 0.0 | 0.0 | 0.00 | 0.00 | 0.00 | 88 | 1014.9 |
| 20260505060505 | 15 | 90 | 0.0 | 0.0 | 0.00 | 0.00 | 0.00 | 88 | 1015.0 |
| 20260505060005 | 15 | 90 | 0.0 | 0.0 | 0.00 | 0.00 | 0.00 | 87 | 1015.0 |
| 20260505055503 | 15 | 90 | 0.0 | 0.0 | 0.00 | 0.00 | 0.00 | 87 | 1014.9 |
| 20260505055004 | 16 | 90 | 0.0 | 0.0 | 0.00 | 0.00 | 0.00 | 87 | 1014.9 |
| 20260505054504 | 16 | 90 | 0.0 | 0.0 | 0.00 | 0.00 | 0.00 | 87 | 1015.0 |
| 20260505054003 | 16 | 90 | 0.0 | 0.0 | 0.00 | 0.00 | 0.00 | 87 | 1015.1 |
| 20260505053504 | 16 | 90 | 0.0 | 0.0 | 0.00 | 0.00 | 0.00 | 86 | 1015.1 |
| 20260505053005 | 16 | 90 | 0.0 | 0.0 | 0.00 | 0.00 | 0.00 | 86 | 1015.3 |
| 20260505052504 | 16 | 90 | 0.0 | 0.0 | 0.00 | 0.00 | 0.00 | 85 | 1015.3 |
| 20260505052006 | 16 | 90 | 0.0 | 0.0 | 0.00 | 0.00 | 0.00 | 85 | 1015.3 |
| 20260505051505 | 16 | 90 | 0.0 | 0.0 | 0.00 | 0.00 | 0.00 | 85 | 1015.4 |
| 20260505051004 | 16 | 90 | 0.0 | 0.0 | 0.00 | 0.00 | 0.00 | 85 | 1015.5 |
| 20260505050505 | 16 | 90 | 0.0 | 0.0 | 0.00 | 0.00 | 0.00 | 85 | 1015.6 |
| 20260505041503 | 18 | 90 | 0.0 | 0.0 | 0.00 | 0.00 | 0.00 | 77 | 1015.9 |
| 20260505041004 | 18 | 90 | 0.0 | 1.6 | 0.00 | 0.00 | 0.00 | 77 | 1016.0 |
| 20260505040504 | 18 | 90 | 0.0 | 1.6 | 0.00 | 0.00 | 0.00 | 76 | 1016.0 |
| 20260505040005 | 18 | 90 | 0.0 | 1.6 | 0.00 | 0.00 | 0.00 | 75 | 1016.0 |
| 20260505035504 | 18 | 90 | 0.0 | 1.6 | 0.00 | 0.00 | 0.00 | 74 | 1015.8 |
| 20260505035005 | 18 | 90 | 0.0 | 1.6 | 0.00 | 0.00 | 0.00 | 74 | 1015.8 |
| 20260505034503 | 18 | 90 | 0.0 | 0.0 | 0.00 | 0.00 | 0.00 | 73 | 1015.8 |
| 20260505034003 | 18 | 90 | 0.0 | 1.6 | 0.00 | 0.00 | 0.00 | 72 | 1015.8 |
| 20260505033504 | 19 | 90 | 0.0 | 3.2 | 0.00 | 0.00 | 0.00 | 73 | 1015.8 |
| 20260505033004 | 19 | 74 | 1.6 | 4.8 | 0.00 | 0.00 | 0.00 | 73 | 1015.8 |
| 20260505032004 | 19 | 72 | 1.6 | 4.8 | 0.00 | 0.00 | 0.00 | 72 | 1015.6 |
| 20260505031004 | 19 | 91 | 1.6 | 4.8 | 0.00 | 0.00 | 0.00 | 72 | 1015.7 |
| 20260505030503 | 19 | 93 | 1.6 | 11.3 | 0.00 | 0.00 | 0.00 | 72 | 1015.7 |
| 20260505030004 | 20 | 76 | 0.0 | 11.3 | 0.00 | 0.00 | 0.00 | 72 | 1015.7 |
| 20260505025004 | 20 | 94 | 3.2 | 11.3 | 0.00 | 0.00 | 0.00 | 72 | 1015.7 |
| 20260505024504 | 20 | 72 | 1.6 | 4.8 | 0.00 | 0.00 | 0.00 | 71 | 1015.6 |
| 20260505024004 | 20 | 98 | 3.2 | 8.0 | 0.00 | 0.00 | 0.00 | 71 | 1015.5 |
| 20260505023504 | 20 | 88 | 3.2 | 8.0 | 0.00 | 0.00 | 0.00 | 71 | 1015.5 |
| 20260505023004 | 20 | 82 | 3.2 | 8.0 | 0.00 | 0.00 | 0.00 | 71 | 1015.5 |
| 20260505022003 | 20 | 75 | 3.2 | 4.8 | 0.00 | 0.00 | 0.00 | 70 | 1015.6 |
| 20260505021503 | 20 | 73 | 1.6 | 8.0 | 0.00 | 0.00 | 0.00 | 70 | 1015.6 |
| 20260505021004 | 20 | 85 | 3.2 | 8.0 | 0.00 | 0.00 | 0.00 | 70 | 1015.6 |
| 20260505020504 | 20 | 85 | 3.2 | 4.8 | 0.00 | 0.00 | 0.00 | 70 | 1015.5 |
| 20260505020004 | 20 | 98 | 1.6 | 4.8 | 0.00 | 0.00 | 0.00 | 70 | 1015.5 |
| 20260505015504 | 20 | 72 | 1.6 | 4.8 | 0.00 | 0.00 | 0.00 | 70 | 1015.5 |
| 20260505015004 | 20 | 74 | 3.2 | 9.7 | 0.00 | 0.00 | 0.00 | 70 | 1015.5 |
| 20260505014503 | 20 | 91 | 1.6 | 9.7 | 0.00 | 0.00 | 0.00 | 69 | 1015.5 |
| 20260505014003 | 20 | 82 | 3.2 | 9.7 | 0.00 | 0.00 | 0.00 | 69 | 1015.5 |
| 20260505013504 | 20 | 39 | 0.0 | 11.3 | 0.00 | 0.00 | 0.00 | 69 | 1015.5 |
| 20260505013003 | 20 | 84 | 3.2 | 11.3 | 0.00 | 0.00 | 0.00 | 68 | 1015.5 |
| 20260505012503 | 20 | 88 | 8.0 | 11.3 | 0.00 | 0.00 | 0.00 | 68 | 1015.4 |
| 20260505012003 | 21 | 74 | 1.6 | 9.7 | 0.00 | 0.00 | 0.00 | 68 | 1015.4 |
| 20260505011504 | 21 | 114 | 3.2 | 11.3 | 0.00 | 0.00 | 0.00 | 67 | 1015.4 |
| 20260505010504 | 21 | 78 | 3.2 | 11.3 | 0.00 | 0.00 | 0.00 | 67 | 1015.3 |
| 20260505010004 | 21 | 96 | 4.8 | 11.3 | 0.00 | 0.00 | 0.00 | 67 | 1015.2 |
| 20260505005004 | 21 | 89 | 3.2 | 14.5 | 0.00 | 0.00 | 0.00 | 65 | 1015.1 |